CAPE
0 0 0 0 0 0 0 0 0 0 0 0 0 0 0 0 0 0 0 0 0 0 0 72 255 518 727 800 721 735 582 491 348 240 443 444 700 857 879 964 1088 965 972
0 0 0 0 0 0 0 0 0 0 0 0 0 0 0 0 0 0 0 0 0 0 0 0 0 5 117 468 463 659 644 756 589 419 591 744 674 848 914 890 670 645 836
0 0 0 0 0 0 0 0 0 2 2 0 0 1 0 3 4 4 5 4 4 2 4 1 0 0 0 54 323 459 446 741 785 723 454 616 593 354 118 109 252 581 814
0 0 0 0 0 0 1 4 3 2 0 1 1 3 5 6 0 1 2 2 1 1 3 0 5 2 0 1 11 174 358 447 541 494 569 382 162 328 244 201 172 550 650
0 0 0 0 1 2 1 0 0 0 0 0 1 1 0 2 0 2 2 2 0 0 1 1 5 12 10 6 13 10 89 213 351 574 467 388 207 256 251 232 745 606 560
0 0 0 1 1 0 0 0 0 0 0 0 0 0 0 0 0 0 2 0 0 0 0 0 1 9 2 8 2 0 0 7 15 246 298 410 290 258 159 191 52 68 52
0 0 0 0 0 0 0 0 0 0 0 0 0 0 0 0 0 0 0 0 0 1 3 3 1 3 5 3 2 1 8 6 10 12 54 244 559 363 339 152 133 178 197
0 0 0 0 0 0 0 0 0 0 0 0 0 0 0 0 0 0 0 0 0 0 3 0 2 2 2 3 3 1 0 3 24 44 10 20 126 630 724 414 326 388 363
0 0 0 0 0 0 0 0 0 0 0 0 0 0 0 0 0 0 0 0 0 0 1 0 0 1 1 1 2 1 2 0 6 0 0 0 0 0 7 201 501 371 174
0 0 0 0 0 0 0 0 0 0 0 0 0 0 0 0 0 0 0 0 0 0 0 1 2 1 0 0 2 2 4 4 4 0 8 19 13 63 27 38 267 537 259
0 0 0 0 0 0 0 0 0 0 0 0 0 0 0 0 0 0 0 0 0 0 0 0 3 0 0 0 1 2 2 2 3 3 26 52 47 54 48 117 136 254 434
0 0 0 0 0 0 0 0 0 0 0 0 0 0 0 0 0 0 0 0 0 0 0 0 0 0 0 0 0 0 0 0 0 1 2 3 13 41 64 65 112 154 182
0 0 0 0 0 0 0 0 0 0 0 0 0 0 0 0 0 0 0 0 0 0 0 0 0 0 0 0 0 0 0 1 0 1 3 4 3 3 2 55 94 134 215
0 0 0 0 0 0 0 0 0 0 0 0 0 0 0 0 0 0 0 0 0 0 0 0 0 0 0 0 0 0 0 0 0 1 1 1 1 1 1 3 5 60 57
0 0 0 0 0 0 0 0 0 0 0 0 0 0 0 0 0 0 0 0 0 0 0 0 0 0 0 0 0 0 0 0 0 0 0 0 0 1 2 0 2 3 44
0 0 0 0 0 0 0 0 0 0 0 0 0 0 0 0 0 0 0 0 0 0 0 0 0 1 2 5 5 2 1 0 0 0 0 0 0 0 1 1 2 3 2
0 0 0 0 0 0 0 0 0 0 0 0 0 0 0 0 0 0 0 0 0 0 0 0 0 0 0 0 1 8 11 10 7 5 1 0 0 0 0 0 2 2 2
0 0 0 0 0 0 0 0 0 0 0 0 0 0 0 0 0 0 0 0 1 1 0 0 0 0 0 0 0 0 0 0 3 4 0 0 0 0 0 0 0 2 1
0 0 0 0 0 0 0 0 0 0 8 8 8 5 1 0 0 0 0 0 0 1 1 0 0 0 0 0 0 0 0 0 1 3 0 0 0 0 0 0 0 0 1
0 0 0 0 0 0 0 0 5 21 29 31 27 22 11 0 13 19 13 0 0 0 9 3 1 0 0 0 0 0 0 0 0 0 0 0 0 0 0 0 0 0 0
0 0 0 0 0 0 0 0 10 26 29 25 22 6 2 3 10 17 12 7 5 0 6 19 0 0 0 0 0 0 0 0 0 0 0 0 0 0 0 0 0 0 0
1 0 0 0 0 0 1 1 7 9 10 19 6 10 0 0 3 18 21 17 16 24 22 6 1 1 0 0 0 0 0 0 0 0 0 0 0 0 0 0 0 0 0
0 0 0 0 0 0 0 0 1 3 7 3 0 0 0 0 3 21 19 26 28 24 4 7 1 4 0 0 0 0 0 0 0 0 0 0 0 0 0 0 0 0 0
1 1 2 0 0 0 0 0 1 0 0 0 0 0 0 4 15 13 1 1 3 9 0 0 0 0 0 0 0 0 0 0 0 0 0 0 0 0 0 0 0 0 0
0 0 0 0 0 0 0 1 0 0 0 0 0 0 0 0 0 0 0 0 0 0 0 0 0 0 0 0 0 0 0 0 0 0 0 0 0 0 0 0 0 0 0
8 5 3 2 0 0 0 0 0 0 0 0 0 0 0 0 0 0 0 0 0 0 0 0 0 0 0 0 0 0 0 0 0 0 0 0 0 0 0 0 0 0 0
CIN
-0 -0 -0 -0 -0 -0 -0 -0 -0 -0 -0 -0 -0 -0 -0 -0 -0 -0 -0 -0 -0 -0 -3 -144 -51 -20 -15 -7 -8 -1 -0 -0 -1 -29 -36 -51 -33 -28 -25 -19 -26 -46 -32
-0 -0 -0 -0 -0 -0 -0 -0 -0 -0 -0 -0 -0 -0 -0 -0 -0 -0 -0 -0 -0 -0 -0 -0 -0 -7 -75 -15 -17 -9 -9 -0 -0 -4 -3 -0 -5 -13 -14 -13 -10 -9 -19
-0 -0 -0 -0 -0 -0 -0 -0 -0 -0 -0 -0 -0 -0 -0 -0 -0 -0 -0 -0 -0 -0 -0 -0 -0 -0 -0 -75 -3 -6 -8 -2 -0 -0 -16 -1 -2 -54 -134 -115 -100 -8 -15
-0 -0 -0 -0 -0 -0 -0 -0 -0 -0 -0 -0 -0 -0 -0 -0 -0 -0 -0 -0 -0 -0 -0 -1 -0 -0 -0 -0 -38 -32 -2 -0 -2 -4 -1 -3 -36 -36 -58 -61 -25 -4 -20
-0 -0 -0 -0 -0 -0 -0 -0 -0 -0 -0 -0 -0 -0 -0 -0 -0 -0 -0 -0 -0 -0 -0 -0 -0 -0 -0 -0 -0 -1 -87 -20 -0 -0 -0 -0 -19 -12 -11 -3 -0 -8 -11
-0 -0 -0 -0 -0 -0 -0 -0 -0 -0 -0 -0 -0 -0 -0 -0 -0 -0 -0 -0 -0 -0 -0 -0 -0 -0 -1 -1 -6 -0 -0 -17 -20 -8 -2 -0 -2 -6 -3 -9 -6 -23 -41
-0 -0 -0 -0 -0 -0 -0 -0 -0 -0 -0 -0 -0 -0 -0 -0 -0 -0 -0 -0 -0 -0 -0 -0 -0 -0 -0 -0 -0 -0 -8 -13 -26 -18 -69 -3 -0 -1 -5 -6 -2 -0 -1
-0 -0 -0 -0 -0 -0 -0 -0 -0 -0 -0 -0 -0 -0 -0 -0 -0 -0 -0 -0 -0 -0 -0 -0 -0 -0 -0 -0 -0 -0 -0 -6 -3 -0 -9 -34 -10 -0 -0 -0 -0 -0 -1
-0 -0 -0 -0 -0 -0 -0 -0 -0 -0 -0 -0 -0 -0 -0 -0 -0 -0 -0 -0 -0 -0 -0 -0 -0 -0 -0 -0 -0 -0 -0 -0 -7 -2 -0 -0 -0 -0 -8 -5 -0 -0 -0
-0 -0 -0 -0 -0 -0 -0 -0 -0 -0 -0 -0 -0 -0 -0 -0 -0 -0 -0 -0 -0 -0 -0 -0 -0 -0 -0 -0 -0 -0 -0 -0 -0 -0 -40 -19 -13 -1 -38 -41 -3 -0 -0
-0 -0 -0 -0 -0 -0 -0 -0 -0 -0 -0 -0 -0 -0 -0 -0 -0 -0 -0 -0 -0 -0 -0 -0 -0 -0 -0 -0 -0 -0 -0 -0 -0 -0 -9 -1 -1 -1 -1 -5 -8 -1 -0
-0 -0 -0 -0 -0 -0 -0 -0 -0 -0 -0 -0 -0 -0 -0 -0 -0 -0 -0 -0 -0 -0 -0 -0 -0 -0 -0 -0 -0 -0 -0 -0 -0 -0 -0 -0 -1 -4 -1 -1 -0 -25 -11
-0 -0 -0 -0 -0 -0 -0 -0 -0 -0 -0 -0 -0 -0 -0 -0 -0 -0 -0 -0 -0 -0 -0 -0 -0 -0 -0 -0 -0 -0 -0 -0 -0 -0 -0 -0 -0 -0 -10 -0 -1 -30 -4
-0 -0 -0 -0 -0 -0 -0 -0 -0 -0 -0 -0 -0 -0 -0 -0 -0 -0 -0 -0 -0 -0 -0 -0 -0 -0 -0 -0 -0 -0 -0 -0 -0 -0 -0 -0 -0 -0 -0 -0 -11 -1 -1
-0 -0 -0 -0 -0 -0 -0 -0 -0 -0 -0 -0 -0 -0 -0 -0 -0 -0 -0 -0 -0 -0 -0 -0 -0 -0 -0 -0 -0 -0 -0 -0 -0 -0 -0 -0 -0 -0 -0 -0 -0 -0 -2
-0 -0 -0 -0 -0 -0 -0 -0 -0 -0 -0 -0 -0 -0 -0 -0 -0 -0 -0 -0 -0 -0 -0 -0 -0 -1 -1 -1 -1 -1 -1 -0 -0 -0 -0 -0 -0 -0 -0 -0 -0 -0 -0
-0 -0 -0 -0 -0 -0 -0 -0 -0 -0 -0 -0 -0 -0 -0 -0 -0 -0 -0 -0 -0 -0 -0 -0 -0 -0 -0 -0 -0 -1 -1 -2 -1 -2 -1 -0 -0 -0 -0 -0 -0 -0 -0
-0 -0 -0 -0 -0 -0 -0 -0 -0 -0 -0 -0 -0 -0 -0 -0 -0 -0 -0 -0 -2 -1 -0 -0 -0 -0 -0 -0 -0 -0 -0 -0 -1 -1 -0 -0 -0 -0 -0 -0 -0 -0 -0
-0 -0 -0 -0 -0 -0 -0 -0 -0 -0 -18 -16 -15 -27 -23 -0 -0 -0 -0 -0 -0 -8 -2 -0 -0 -0 -0 -0 -0 -0 -0 -0 -1 -1 -0 -0 -0 -0 -0 -0 -0 -0 -0
-0 -0 -0 -0 -0 -0 -0 -0 -12 -11 -14 -13 -23 -32 -41 -0 -23 -12 -22 -19 -0 -0 -32 -15 -12 -0 -0 -0 -0 -0 -0 -0 -0 -0 -0 -0 -0 -0 -0 -0 -0 -0 -0
-0 -0 -0 -0 -0 -0 -0 -1 -20 -25 -25 -42 -59 -51 -112 -121 -55 -19 -27 -36 -79 -1 -39 -40 -0 -0 -0 -0 -0 -0 -0 -0 -0 -0 -0 -0 -0 -0 -0 -0 -0 -0 -0
-10 -0 -0 -0 -0 -0 -14 -24 -42 -57 -58 -62 -85 -33 -0 -0 -10 -9 -14 -22 -32 -27 -46 -91 -19 -24 -0 -0 -0 -0 -0 -0 -0 -0 -0 -0 -0 -0 -0 -0 -0 -0 -0
-0 -0 -0 -0 -0 -0 -0 -0 -73 -66 -66 -32 -0 -0 -0 -0 -2 -2 -3 -7 -15 -17 -19 -88 -47 -51 -0 -0 -0 -0 -0 -0 -0 -0 -0 -0 -0 -0 -0 -0 -0 -0 -0
-5 -46 -39 -6 -0 -0 -0 -0 -9 -8 -0 -0 -0 -0 -0 -1 -1 -1 -2 -12 -57 -27 -0 -0 -0 -0 -0 -0 -0 -0 -0 -0 -0 -0 -0 -0 -0 -0 -0 -0 -0 -0 -0
-0 -0 -0 -9 -0 -0 -0 -51 -0 -0 -0 -0 -0 -0 -0 -0 -0 -0 -0 -0 -0 -0 -0 -0 -0 -0 -0 -0 -0 -0 -0 -0 -0 -0 -0 -0 -0 -0 -0 -0 -0 -0 -0
-60 -76 -93 -113 -0 -0 -0 -0 -0 -0 -0 -0 -0 -0 -0 -0 -0 -0 -0 -0 -0 -0 -0 -0 -0 -0 -0 -0 -0 -0 -0 -0 -0 -0 -0 -0 -0 -0 -0 -0 -0 -0 -0
Wind_Speed
18 18 18 18 19 21 24 26 27 27 27 29 30 30 29 29 29 28 28 28 29 29 30 30 30 30 27 25 23 22 18 16 19 25 26 31 34 31 30 29 30 30 27
16 18 20 20 21 23 25 26 26 28 29 29 29 30 29 29 29 29 29 29 30 31 32 33 33 32 32 30 27 25 23 23 20 26 32 31 31 29 31 30 32 32 33
19 21 22 23 23 24 25 27 28 28 29 29 29 30 29 29 30 30 29 30 30 29 30 31 33 34 34 32 32 31 28 27 25 26 28 29 27 30 32 36 36 38 35
20 22 23 24 25 26 27 27 28 28 29 29 30 29 28 28 29 31 31 31 31 30 30 30 31 32 33 34 35 34 33 32 28 26 27 26 29 26 27 27 26 23 32
23 24 23 22 24 25 26 27 28 29 29 29 28 28 29 28 32 33 33 32 31 32 31 31 31 31 30 31 33 34 35 36 34 30 30 29 28 28 28 26 26 25 30
21 21 21 22 24 25 26 26 27 27 27 27 28 29 30 30 33 34 34 32 31 31 33 33 32 30 32 31 32 34 34 35 37 37 37 33 31 27 28 27 28 28 31
21 21 21 22 23 23 24 24 25 26 26 27 29 30 31 32 34 35 35 32 32 33 32 32 32 32 33 34 35 35 34 33 33 36 40 37 36 31 30 30 30 30 31
19 20 20 21 21 21 22 23 24 25 27 28 30 31 31 33 35 37 35 34 34 33 33 32 33 33 33 37 36 35 35 34 34 33 34 37 38 35 32 31 31 32 32
20 20 20 20 20 20 21 22 23 25 27 28 29 30 32 33 36 37 36 34 35 34 34 33 33 35 38 37 36 36 36 36 34 33 35 37 38 37 36 36 34 33 35
17 17 18 19 20 20 21 22 23 24 25 25 27 28 30 32 35 36 36 35 35 35 34 34 34 37 37 36 35 35 36 36 37 38 38 37 36 37 36 33 36 37 36
16 16 17 18 18 20 20 21 21 22 23 25 26 26 27 30 32 35 36 35 35 35 35 35 35 38 37 36 34 34 35 36 35 35 36 36 35 35 35 33 34 37 38
16 16 16 17 18 19 20 20 20 22 24 25 26 26 25 27 29 32 34 35 36 35 35 35 35 37 36 35 34 35 34 33 33 34 33 33 33 34 35 36 35 35 37
14 15 16 17 18 18 19 20 21 23 25 26 25 26 27 26 26 28 31 33 34 34 34 35 35 35 35 34 35 35 34 33 33 33 34 34 35 35 35 36 36 36 36
14 15 15 16 18 18 17 19 21 23 25 26 27 27 27 28 28 28 29 29 31 32 34 31 32 33 31 32 34 34 34 33 33 32 33 33 34 33 33 33 34 35 36
14 14 15 17 18 19 20 20 21 21 23 24 24 24 25 28 30 26 26 27 29 30 31 31 32 33 33 33 33 34 34 34 34 34 33 33 33 33 33 33 34 35 35
13 14 16 17 18 19 20 22 19 21 22 20 16 18 21 19 22 23 23 24 25 28 29 33 34 33 33 33 33 34 34 35 35 35 35 34 34 33 34 33 33 34 36
13 13 15 16 17 18 21 22 25 27 25 23 19 17 17 18 18 19 21 22 24 26 29 32 32 33 33 34 34 34 35 35 34 35 35 35 34 33 33 32 32 33 35
12 13 15 16 18 20 21 22 22 24 27 27 23 21 18 18 18 18 19 21 23 24 27 29 30 31 31 33 34 35 35 35 35 35 36 35 35 34 33 32 32 32 33
13 14 16 17 19 20 21 20 21 23 23 23 24 23 22 22 22 21 18 18 20 22 24 25 26 27 28 30 32 33 35 35 35 36 36 36 35 35 34 33 33 32 31
14 14 15 16 19 19 19 20 22 24 24 23 23 24 24 22 22 22 19 18 18 19 19 21 23 24 26 27 30 32 34 36 36 37 37 37 36 35 35 34 33 33 32
13 15 14 14 17 21 20 19 22 24 25 26 25 24 23 21 20 19 20 20 19 19 18 19 22 24 25 26 27 31 32 36 37 38 38 38 37 36 35 34 33 32 33
12 14 14 15 18 20 20 21 23 25 27 28 25 26 26 23 22 20 20 21 22 22 22 19 19 20 22 24 25 26 29 35 37 37 39 38 37 36 34 34 34 33 33
13 14 15 17 19 20 22 22 24 26 27 27 28 29 29 27 25 23 23 23 25 25 25 22 21 23 25 23 23 25 27 31 34 37 37 37 36 36 35 35 34 33 32
14 14 15 19 22 24 25 24 23 23 26 28 29 29 29 27 27 27 26 26 26 27 26 25 25 26 25 27 26 26 27 30 32 31 32 34 35 35 34 35 34 33 33
15 16 19 23 24 25 25 24 24 25 27 29 29 28 28 28 28 27 27 28 27 27 27 26 26 28 28 29 28 28 31 31 30 29 29 30 31 34 34 33 33 33 33
16 18 20 23 23 24 24 25 25 27 28 28 28 27 27 27 27 27 27 28 28 27 27 27 28 30 30 29 30 33 30 29 30 28 28 27 30 31 32 34 34 33 33
Wind_Direction
55 40 25 10 357 351 347 345 346 348 349 348 346 343 341 338 335 332 327 322 316 310 306 305 303 302 303 307 309 306 308 304 301 293 293 283 277 282 283 285 282 282 285
42 27 14 6 358 352 348 348 348 349 350 348 348 347 346 341 338 333 330 324 318 312 307 303 300 301 298 299 301 302 304 304 304 297 287 288 285 287 283 285 285 285 279
17 7 2 357 356 353 350 349 348 348 348 348 349 348 346 345 340 336 334 329 326 322 317 311 303 299 296 296 295 295 298 299 300 298 295 292 299 288 286 279 280 270 277
10 2 359 356 353 351 350 350 349 350 350 350 349 350 351 351 347 341 334 329 328 327 325 322 315 306 299 294 292 292 292 293 296 295 295 296 296 298 292 294 287 269 280
1 360 2 4 2 358 356 355 354 354 356 356 356 355 353 352 345 339 336 331 328 325 326 324 321 316 309 301 297 294 291 290 290 289 290 292 293 293 292 295 289 294 284
6 7 10 9 5 1 1 3 5 5 6 6 5 2 359 356 347 343 339 338 334 329 324 321 320 321 316 313 306 299 295 292 287 287 286 286 288 291 292 292 292 290 285
9 11 12 12 11 11 13 12 11 10 11 9 6 3 0 357 350 344 341 343 340 335 330 327 323 321 319 315 308 303 300 298 294 290 285 284 284 287 288 289 289 288 286
18 19 19 18 17 19 16 16 16 14 12 9 6 5 3 359 354 348 347 348 345 341 338 333 329 325 323 317 312 307 303 300 298 295 291 288 285 285 286 286 288 287 287
17 19 17 17 20 23 21 21 17 14 11 10 10 8 6 3 0 357 356 355 351 348 347 343 337 329 323 320 317 311 306 303 301 298 294 289 286 285 282 283 281 282 282
29 27 27 28 29 29 25 19 17 14 14 14 11 10 9 6 3 1 359 357 353 351 352 349 345 336 331 328 321 317 310 307 304 299 295 293 290 286 283 280 278 276 277
31 34 36 36 33 26 23 22 19 17 15 11 9 11 11 10 6 4 3 1 357 355 352 350 348 344 341 336 331 324 316 313 310 305 300 296 293 289 285 283 278 274 273
38 43 42 37 29 25 23 22 21 16 13 10 10 10 12 13 11 9 7 7 4 0 357 355 352 347 346 347 342 333 325 320 315 310 306 303 300 295 289 284 281 278 273
47 44 38 31 27 25 22 21 17 14 11 11 12 12 11 13 13 12 8 5 5 4 1 359 358 356 354 350 346 343 339 332 324 316 308 304 303 298 297 289 284 279 277
43 38 34 32 26 27 29 23 18 16 13 10 11 12 13 13 12 11 10 8 7 6 3 4 3 360 3 358 350 347 344 339 332 326 317 311 306 304 299 297 290 284 277
36 39 38 34 33 32 29 25 21 18 15 11 13 14 14 11 10 13 13 10 8 6 5 4 1 359 356 355 354 349 344 342 337 331 322 318 314 308 302 298 292 288 282
43 46 40 35 31 28 22 16 22 15 8 11 17 18 15 16 14 16 16 15 12 9 9 3 1 360 356 353 350 347 346 343 338 335 331 322 315 311 306 304 297 290 283
49 45 38 30 25 20 14 12 9 6 10 12 15 15 15 11 12 14 13 13 12 13 9 6 6 3 358 355 350 344 340 340 339 335 332 329 320 313 309 307 304 294 288
46 41 31 23 19 14 12 12 12 9 7 12 19 20 16 13 9 7 8 9 10 10 8 7 7 7 5 0 357 348 341 337 333 330 329 328 327 319 311 305 304 303 294
35 26 22 19 16 13 14 17 15 11 10 11 9 11 11 8 7 8 8 6 4 3 4 6 7 7 6 4 359 356 347 340 335 329 327 329 326 322 314 308 300 299 301
24 19 18 16 13 13 12 12 9 5 4 4 4 3 2 2 2 4 6 5 1 360 359 359 1 1 2 0 357 353 349 343 336 327 323 324 323 322 317 308 302 292 289
21 17 18 20 15 8 10 9 4 359 358 357 357 358 1 359 357 357 359 2 1 358 356 355 355 356 354 355 355 352 348 342 336 326 325 323 319 318 319 310 305 297 289
25 24 27 22 10 7 7 2 359 356 355 356 1 2 2 2 359 359 0 1 2 1 359 358 356 355 355 352 353 352 349 342 335 332 323 321 319 316 318 313 304 297 291
29 23 17 10 6 5 3 1 358 357 358 0 1 0 1 2 4 6 5 4 2 1 2 3 0 357 357 358 355 353 350 347 342 334 328 323 319 316 312 312 306 297 297
18 13 9 1 358 357 357 2 5 8 3 0 1 2 4 7 8 7 7 6 5 5 6 5 4 2 0 357 355 354 352 349 345 343 338 329 324 317 314 309 307 300 296
13 8 1 354 355 357 1 6 6 6 4 3 3 5 8 10 10 10 9 8 7 5 4 4 3 359 358 356 356 354 350 349 347 345 340 336 331 321 315 310 307 303 298
4 1 357 355 358 1 3 3 4 4 3 4 7 9 10 10 10 10 9 8 7 7 5 4 2 0 359 359 358 355 355 354 351 349 345 340 332 326 320 312 305 302 297